sat.trackr.live / text

‹ back to catalog

STARLINK-3210

NORAD 49755 · 2021-115AH

PAYLOAD ACTIVE UNKNOWN

§ Identity

Operator
Country
US
Launch date
2021-12-02
Launch site
AFETR
Launch vehicle
Mass (kg)
RCS (m²)

Purposes: comms

External: N2YO · Heavens-Above · Gunter

§ Orbital elements

Epoch: 2026-09-12T15:24:21.629664Z

Period
93.85 min
Inclination
53.1632°
Eccentricity
0.0001136
Mean motion
15.34391972 rev/d
Perigee alt
461.9 km
Apogee alt
463.5 km
Semi-major
6,840.9 km
B*
2.5437e-5
RAAN
18.5384°
Arg perigee
85.1635°
Mean anomaly
274.9497°
Rev number
26,391

§ Raw data

STARLINK-32101 49755U 21115AH  26255.64191701  .00000483  00000+0  25437-4 0  99982 49755  53.1632  18.5384 0001136  85.1635 274.9497 15.34391972263917

JSON: /api/v1/satellites/49755 · /tle

For live sub-satellite position, see the globe view (requires WebGL).

§ Visibility from observer

Set your observer location to see the next 7 days of passes ≥ 10°. The values pass through the URL so the page stays shareable.

No JS? Fill the form by hand. The geolocation button needs JavaScript.